Regional Weather Roundup
Issued by NWS Boston, MA

Home | Current Version | Previous Version | Text Only | Print | Product List | Glossary On
Versions: 1 2 3 4 5 6 7 8 9 10 11 12 13 14 15 16 17 18 19 20 21 22 23 24 25 26 27 28 29 30 31 32 33 34 35 36 37 38 39 40 41 42 43 44 45 46 47 48 49 50
000
ASUS41 KBOX 030910
RWRBOX

REGIONAL WEATHER ROUNDUP
NATIONAL WEATHER SERVICE TAUNTON MA
400 AM EST TUE MAR 03 2015

NOTE:  "FAIR" INDICATES FEW OR NO CLOUDS BELOW 12,000 FEET WITH NO
SIGNIFICANT WEATHER AND/OR OBSTRUCTIONS TO VISIBILITY.  THE FOLLOWING
OBSERVATION LOCATIONS DO NOT REPORT PRESENT WEATHER...PROVINCETOWN...
SMITHFIELD...BLOCK ISLAND...KEENE...AND OXFORD.

MAZALL-031000-
EASTERN MASSACHUSETTS

CITY           SKY/WX    TMP DP  RH WIND       PRES   REMARKS
BOSTON         CLEAR     22   4  46 NW9       30.33R WCI  12
BEVERLY        CLEAR     20   0  41 NW12      30.31R WCI   8
LAWRENCE       CLEAR     19   1  45 W7        30.33R WCI  10
BEDFORD        CLEAR     17   3  54 W7        30.32R WCI   8
BLUE HILL        N/A     16   4  59 NW12      30.27R WCI   3
NORWOOD        CLEAR     14   2  58 CALM      30.33R
MARSHFIELD     CLEAR     23   5  46 W5        30.34R WCI  17
PLYMOUTH       CLEAR     14   2  58 CALM      30.32R
TAUNTON        CLEAR     11   5  77 W5        30.33R WCI   3
NEW BEDFORD    CLEAR     17   7  64 CALM      30.33R
$$

MAZALL-031000-
CAPE COD AND THE ISLANDS

CITY           SKY/WX    TMP DP  RH WIND       PRES   REMARKS
FALMOUTH       CLEAR     16   5  62 NW6       30.32R WCI   7
HYANNIS        CLEAR     22   7  52 W10       30.30R WCI  11
CHATHAM        CLEAR     23   5  46 VRB6      30.31R WCI  16
PROVINCETOWN   CLEAR     25   7  46 NW20G28   30.31R WCI  11
NANTUCKET      CLEAR     25  10  53 NW16      30.31R WCI  12
MARTHAS VNYRD  CLEAR     23   2  40 NW12      30.32R WCI  12
$$

MAZALL-031000-
CENTRAL AND WESTERN MASSACHUSETTS

CITY           SKY/WX    TMP DP  RH WIND       PRES   REMARKS
WORCESTER      CLEAR     13   4  67 NW7       30.26R WCI   3
FITCHBURG      CLEAR      9   0  67 N6        30.32R WCI  -1
ORANGE         CLEAR      5   2  87 CALM      30.31R
SPRINGFIELD    CLEAR     14   4  65 W6        30.33R WCI   5
WESTFIELD      CLEAR     14   4  64 W5        30.34R WCI   6
NORTH ADAMS    CLEAR     16   4  59 W10       30.31R WCI   4
PITTSFIELD     FAIR      13   4  67 NW10      30.26R WCI   0
$$

RIZALL-031000-
RHODE ISLAND

CITY           SKY/WX    TMP DP  RH WIND       PRES   REMARKS
PROVIDENCE     CLEAR     18   6  59 W5        30.34R WCI  11
NEWPORT        CLEAR     21   9  59 NW7       30.33R WCI  12
BLOCK ISLAND   CLEAR     25   9  50 NW9       30.33R WCI  15
SMITHFIELD     CLEAR     10   1  67 CALM      30.30R
WESTERLY       CLEAR     20   7  57 W3        30.35S
$$

CTZALL-031000-
CONNECTICUT

CITY           SKY/WX    TMP DP  RH WIND       PRES   REMARKS
BRADLEY INTL   CLEAR     17   5  59 W7        30.35R WCI   8
HARTFORD       CLEAR     20   7  57 VRB6      30.38R WCI  12
BRIDGEPORT     CLEAR     16   8  71 NW8       30.39R WCI   5
DANBURY        CLEAR      6   0  76 SW3       30.38R
GROTON         CLEAR     19   8  62 NW8       30.36R WCI   9
NEW HAVEN      CLEAR     21   8  57 CALM      30.38R
CHESTER        FAIR      21   9  58 NW6       30.36R WCI  14
MERIDEN        CLEAR     16   6  65 NW7       30.38R WCI   6
WILLIMANTIC    CLEAR     15   4  61 W3        30.35R
OXFORD         CLEAR     18   1  49 NW3       30.34R
$$

MEZ002-015-021-024-NHZ003-005-008-011-012-014-VTZ005-008-031000-
NORTHERN NEW ENGLAND

CITY           SKY/WX    TMP DP  RH WIND       PRES   REMARKS
PORTLAND ME    CLEAR     14  -3  47 NW5       30.27R WCI   6
BANGOR ME      CLEAR     11  -7  44 NW8       30.21R WCI  -1
CONCORD NH     CLEAR     17   0  47 NW10      30.29R WCI   5
MANCHESTER NH  CLEAR     19   2  47 NW8       30.30R WCI   9
NASHUA NH      CLEAR     14   1  56 CALM      30.32R
PORTSMOUTH NH  CLEAR     18  -1  42 W14       30.27R WCI   5
JAFFREY NH     CLEAR     13   1  59 CALM      30.25R
KEENE NH       CLEAR     16   1  53 CALM      30.30R
BURLINGTON VT  CLEAR      2  -4  76 E5        30.35R WCI  -8
MT. WASHINGTON CLEAR    -11 -22  58 NW75G85     N/A  WCI -52
$$

NYZ052-076-031000-
EASTERN NEW YORK

CITY           SKY/WX    TMP DP  RH WIND       PRES   REMARKS
ALBANY         CLEAR     16   4  59 NW6       30.37R WCI   7
NEW YORK CITY  CLEAR     26  11  52 NW8       30.39R WCI  18
$$

ANZALL-031000-
MARINE OBSERVATIONS

STATION/POSITION TIME  TEMP    WIND        PRES    VSBY  WAVE
                       AIR SEA DIR/SP/G                  HT/PER
                 (UTC) (F)     (DEG/KT/KT) (MB)    (MI)  (FT/S)
BOSTON BUOY      0850   25 36  320/ 21/ 25 1027.0R         4/ 4
BUZZARDS BAY     0800          310/ 17/ 19 1027.4R
NANTUCKET SOUND  0850   27 32  310/ 19/ 21 1026.6R         2/ 3
MASS BAY-STELLWA 0804   24 35  290/ 21/ 25   N/A    1 7/8  3/ 3
ISLE OF SHOALS   0900   21     290/ 24/ 28 1024.3R
S OF BLOCK IS    0808      37                N/A           5/ 5
$$

......................KEY.........................
  SKY/WX - SKY CONDITION/PRESENT WEATHER
  TMP    - TEMPERATURE IN FAHRENHEIT
  DWPT   - DEWPOINT IN FAHRENHEIT
  RH     - RELATIVE HUMIDITY IN PERCENT
  WIND   - DIRECTION AND SPEED IN MPH
  PRES   - MEAN SEA LEVEL PRESSURE IN INCHES OF HG
  WCI    - WIND CHILL INDEX
  VSB    - VISIBILITY IN MILES
  HX     - HEAT INDEX
  TC     - TEMPERATURE IN CELSIUS
  VRB    - VARIABLE WIND DIRECTION
  N/A    - NOT AVAILABLE



USA.gov is the U.S. government's official web portal to all federal, state and local government web resources and services.